• In Hungary
  • List of Countries
  • For 7 days
  • Water Temperature
  • Satellite Maps
  • Weather Map
  • News
  • Weather Widgets
  • user-avatar
    Login

    Hourly Weather Kaenly

    Today, 24 October, Wednesday

    Time Temperature Precipitation Wind Pressure Humidity
    00:00 +6°C° 0.1 mm 5 mps 747 mmHg 81%
    01:00 +6°C° 0.1 mm 5 mps 747 mmHg 82%
    02:00 +6°C° 0.1 mm 4 mps 747 mmHg 83%
    03:00 +6°C° 0.1 mm 4 mps 746 mmHg 84%
    04:00 +6°C° 0 mm 4 mps 746 mmHg 85%
    05:00 +6°C° 0 mm 4 mps 746 mmHg 86%
    06:00 +5°C° 0 mm 3 mps 746 mmHg 87%
    07:00 +6°C° 0 mm 4 mps 746 mmHg 86%
    08:00 +6°C° 0 mm 4 mps 746 mmHg 85%
    09:00 +7°C° 0 mm 5 mps 746 mmHg 83%
    10:00 +8°C° 0 mm 5 mps 746 mmHg 79%
    11:00 +8°C° 0 mm 5 mps 746 mmHg 75%
    12:00 +9°C° 0 mm 5 mps 746 mmHg 71%
    13:00 +9°C° 0 mm 5 mps 746 mmHg 71%
    14:00 +9°C° 0 mm 5 mps 746 mmHg 70%
    15:00 +10°C° 0 mm 4 mps 746 mmHg 70%
    16:00 +8°C° 0 mm 4 mps 746 mmHg 74%
    17:00 +7°C° 0 mm 4 mps 746 mmHg 77%
    18:00 +6°C° 0 mm 4 mps 746 mmHg 81%
    19:00 +6°C° 0 mm 4 mps 746 mmHg 82%
    20:00 +6°C° 0 mm 4 mps 746 mmHg 82%
    21:00 +6°C° 0 mm 4 mps 746 mmHg 83%
    22:00 +6°C° 0 mm 4 mps 746 mmHg 83%
    23:00 +6°C° 0 mm 5 mps 746 mmHg 83%

    Tomorrow, 25 October, Thursday

    Time Temperature Precipitation Wind Pressure Humidity
    00:00 +6°C° 0 mm 5 mps 746 mmHg 82%
    01:00 +6°C° 0 mm 5 mps 745 mmHg 83%
    02:00 +5°C° 0 mm 6 mps 745 mmHg 84%
    03:00 +5°C° 0 mm 6 mps 745 mmHg 85%
    04:00 +7°C° 0.5 mm 6 mps 744 mmHg 86%
    05:00 +7°C° 0.5 mm 6 mps 743 mmHg 87%
    06:00 +6°C° 0.5 mm 7 mps 743 mmHg 88%
    07:00 +8°C° 1.7 mm 7 mps 742 mmHg 88%
    08:00 +7°C° 1.7 mm 8 mps 742 mmHg 88%
    09:00 +9°C° 1.7 mm 8 mps 742 mmHg 88%
    10:00 +9°C° 0.7 mm 8 mps 741 mmHg 84%
    11:00 +10°C° 0.7 mm 8 mps 741 mmHg 81%
    12:00 +10°C° 0.7 mm 7 mps 741 mmHg 78%
    13:00 +10°C° 1 mm 7 mps 741 mmHg 79%
    14:00 +10°C° 1 mm 6 mps 740 mmHg 79%
    15:00 +10°C° 1 mm 6 mps 740 mmHg 80%
    16:00 +11°C° 0.4 mm 6 mps 740 mmHg 80%
    17:00 +11°C° 0.4 mm 6 mps 739 mmHg 80%
    18:00 +12°C° 0.4 mm 5 mps 739 mmHg 80%
    19:00 +11°C° 0.2 mm 6 mps 738 mmHg 79%
    20:00 +13°C° 0.2 mm 6 mps 738 mmHg 78%
    21:00 +13°C° 0.2 mm 6 mps 737 mmHg 77%
    22:00 +13°C° 0.6 mm 6 mps 737 mmHg 80%
    23:00 +13°C° 0.6 mm 6 mps 736 mmHg 82%

    Day after tomorrow, 26 October, Friday

    Time Temperature Precipitation Wind Pressure Humidity
    00:00 +11°C° 0.6 mm 6 mps 736 mmHg 84%
    01:00 +11°C° 0.4 mm 6 mps 737 mmHg 85%
    02:00 +10°C° 0.4 mm 6 mps 737 mmHg 86%
    03:00 +9°C° 0.4 mm 5 mps 737 mmHg 87%
    04:00 +9°C° 0.1 mm 5 mps 738 mmHg 83%
    05:00 +8°C° 0.1 mm 5 mps 738 mmHg 79%
    06:00 +7°C° 0.1 mm 5 mps 738 mmHg 75%
    07:00 +7°C° 0 mm 5 mps 739 mmHg 75%
    08:00 +7°C° 0 mm 6 mps 739 mmHg 74%
    09:00 +7°C° 0 mm 6 mps 740 mmHg 74%
    10:00 +6°C° 0 mm 7 mps 740 mmHg 72%
    11:00 +6°C° 0 mm 7 mps 741 mmHg 69%
    12:00 +6°C° 0 mm 7 mps 741 mmHg 66%
    13:00 +7°C° 0 mm 6 mps 742 mmHg 68%
    14:00 +7°C° 0 mm 6 mps 742 mmHg 70%
    15:00 +7°C° 0 mm 5 mps 742 mmHg 72%
    16:00 +6°C° 0.2 mm 5 mps 743 mmHg 74%
    17:00 +6°C° 0.2 mm 4 mps 743 mmHg 76%
    18:00 +5°C° 0.2 mm 4 mps 744 mmHg 79%
    19:00 +5°C° 0.3 mm 4 mps 744 mmHg 79%
    20:00 +5°C° 0.3 mm 4 mps 744 mmHg 80%
    21:00 +4°C° 0.3 mm 4 mps 745 mmHg 80%
    22:00 +4°C° 0.1 mm 4 mps 745 mmHg 80%
    23:00 +3°C° 0.1 mm 4 mps 745 mmHg 79%

    27 October, Saturday

    Time Temperature Precipitation Wind Pressure Humidity
    00:00 +1°C° 0.1 mm 4 mps 746 mmHg 79%
    01:00 +1°C° 0 mm 4 mps 746 mmHg 80%
    02:00 +1°C° 0 mm 4 mps 746 mmHg 82%
    03:00 0°C° 0 mm 4 mps 747 mmHg 83%
    04:00 0°C° 0 mm 5 mps 747 mmHg 84%
    05:00 0°C° 0 mm 5 mps 747 mmHg 85%
    06:00 0°C° 0 mm 5 mps 748 mmHg 86%
    07:00 -1°C° 0 mm 6 mps 748 mmHg 83%
    08:00 +1°C° 0 mm 6 mps 748 mmHg 80%
    09:00 0°C° 0 mm 7 mps 748 mmHg 77%
    10:00 +2°C° 0 mm 7 mps 749 mmHg 76%
    11:00 +2°C° 0 mm 7 mps 749 mmHg 75%
    12:00 +2°C° 0 mm 7 mps 749 mmHg 75%
    13:00 +2°C° 0 mm 6 mps 749 mmHg 74%
    14:00 +2°C° 0 mm 6 mps 750 mmHg 74%
    15:00 +2°C° 0 mm 6 mps 750 mmHg 73%
    16:00 +2°C° 0 mm 5 mps 750 mmHg 75%
    17:00 +2°C° 0 mm 5 mps 751 mmHg 77%
    18:00 +1°C° 0 mm 5 mps 751 mmHg 79%
    19:00 +1°C° 0 mm 5 mps 751 mmHg 80%
    20:00 +1°C° 0 mm 5 mps 750 mmHg 82%
    21:00 +1°C° 0 mm 5 mps 750 mmHg 83%
    22:00 +1°C° 0 mm 5 mps 749 mmHg 82%
    23:00 +2°C° 0 mm 6 mps 749 mmHg 80%

    28 October, Sunday

    Time Temperature Precipitation Wind Pressure Humidity
    00:00 +2°C° 0 mm 7 mps 748 mmHg 79%
    01:00 +3°C° 0.7 mm 7 mps 747 mmHg 80%
    02:00 +2°C° 0.7 mm 8 mps 746 mmHg 80%
    03:00 +2°C° 0.7 mm 9 mps 745 mmHg 81%
    04:00 +3°C° 0.2 mm 9 mps 745 mmHg 82%
    05:00 +4°C° 0.2 mm 8 mps 744 mmHg 84%
    06:00 +4°C° 0.2 mm 8 mps 744 mmHg 85%
    07:00 +4°C° 0.1 mm 8 mps 744 mmHg 83%
    08:00 +4°C° 0.1 mm 8 mps 744 mmHg 80%
    09:00 +4°C° 0.1 mm 8 mps 744 mmHg 78%
    10:00 +4°C° 0.2 mm 8 mps 745 mmHg 75%
    11:00 +3°C° 0.2 mm 9 mps 745 mmHg 73%
    12:00 +3°C° 0.2 mm 9 mps 745 mmHg 70%
    13:00 +3°C° 0.2 mm 9 mps 746 mmHg 72%
    14:00 +3°C° 0.2 mm 9 mps 747 mmHg 73%
    15:00 +2°C° 0.2 mm 9 mps 747 mmHg 74%
    16:00 +2°C° 0.1 mm 9 mps 748 mmHg 76%
    17:00 +2°C° 0.1 mm 9 mps 748 mmHg 77%
    18:00 +2°C° 0.1 mm 8 mps 749 mmHg 78%
    19:00 +2°C° 0.1 mm 8 mps 750 mmHg 79%
    20:00 +2°C° 0.1 mm 8 mps 751 mmHg 80%
    21:00 +2°C° 0.1 mm 7 mps 752 mmHg 81%
    22:00 +2°C° 0.1 mm 7 mps 753 mmHg 79%
    23:00 0°C° 0.1 mm 7 mps 754 mmHg 78%

    29 October, Monday

    Time Temperature Precipitation Wind Pressure Humidity
    00:00 -1°C° 0.1 mm 7 mps 756 mmHg 77%
    01:00 -1°C° 0 mm 6 mps 757 mmHg 77%
    02:00 -1°C° 0 mm 6 mps 758 mmHg 77%
    03:00 -2°C° 0 mm 6 mps 759 mmHg 77%
    04:00 -2°C° 0 mm 6 mps 760 mmHg 75%
    05:00 -1°C° 0 mm 5 mps 760 mmHg 74%
    06:00 -1°C° 0 mm 5 mps 761 mmHg 73%
    07:00 -1°C° 0 mm 5 mps 762 mmHg 72%
    08:00 -1°C° 0 mm 5 mps 763 mmHg 70%
    09:00 -1°C° 0 mm 5 mps 763 mmHg 68%
    10:00 0°C° 0 mm 5 mps 764 mmHg 67%
    11:00 0°C° 0 mm 5 mps 764 mmHg 65%
    12:00 0°C° 0 mm 5 mps 765 mmHg 64%
    13:00 0°C° 0 mm 4 mps 765 mmHg 65%
    14:00 0°C° 0 mm 4 mps 765 mmHg 66%
    15:00 +1°C° 0 mm 3 mps 766 mmHg 68%
    16:00 0°C° 0 mm 3 mps 766 mmHg 71%
    17:00 +1°C° 0 mm 2 mps 766 mmHg 75%
    18:00 -1°C° 0 mm 2 mps 767 mmHg 79%
    19:00 -1°C° 0 mm 2 mps 767 mmHg 80%
    20:00 +1°C° 0 mm 1 mps 767 mmHg 80%
    21:00 +1°C° 0 mm 1 mps 768 mmHg 80%
    22:00 +1°C° 0 mm 1 mps 768 mmHg 81%
    23:00 +1°C° 0 mm 1 mps 768 mmHg 81%

    30 October, Tuesday

    Time Temperature Precipitation Wind Pressure Humidity
    00:00 +1°C° 0 mm 1 mps 768 mmHg 81%
    01:00 +1°C° 0 mm 1 mps 768 mmHg 81%
    02:00 +2°C° 0 mm 1 mps 768 mmHg 82%
    03:00 +2°C° 0 mm 1 mps 768 mmHg 82%
    04:00 +1°C° 0.4 mm 1 mps 768 mmHg 86%
    05:00 +1°C° 0.4 mm 1 mps 768 mmHg 90%
    06:00 +1°C° 0.4 mm 1 mps 768 mmHg 94%
    07:00 +1°C° 0.6 mm 1 mps 768 mmHg 94%
    08:00 +2°C° 0.6 mm 1 mps 768 mmHg 94%
    09:00 +2°C° 0.6 mm 1 mps 768 mmHg 95%
    10:00 +1°C° 0.5 mm 2 mps 768 mmHg 94%
    11:00 +1°C° 0.5 mm 2 mps 769 mmHg 94%
    12:00 +1°C° 0.5 mm 2 mps 769 mmHg 94%
    13:00 +1°C° 0.2 mm 2 mps 769 mmHg 93%
    14:00 0°C° 0.2 mm 3 mps 769 mmHg 93%
    15:00 0°C° 0.2 mm 3 mps 769 mmHg 93%
    16:00 0°C° 0.1 mm 3 mps 769 mmHg 93%
    17:00 -1°C° 0.1 mm 3 mps 770 mmHg 93%
    18:00 -1°C° 0.1 mm 3 mps 770 mmHg 93%
    19:00 -1°C° 0.1 mm 3 mps 770 mmHg 93%
    20:00 -2°C° 0.1 mm 4 mps 770 mmHg 93%
    21:00 -3°C° 0.1 mm 4 mps 771 mmHg 93%
    22:00 -3°C° 0.1 mm 4 mps 771 mmHg 92%
    23:00 -3°C° 0.1 mm 4 mps 771 mmHg 92%
    Show more